GW6387 Weather Reports


time (UTC)temp
F
wind
direction
speed
knots
gust
knots
rain 1hr
in
rain 24hr
in
rain mn
in
humidity
%
barometer
mb
20260504213827 76 272 3.5 7.8 0.00 0.00 0.00 35 1004.2
20260504213328 76 251 0.9 1.7 0.00 0.00 0.00 34 1004.3
20260504212827 76 292 1.7 3.5 0.00 0.00 0.00 37 1004.2
20260504212327 75 242 0.9 2.6 0.00 0.00 0.00 35 1004.2
20260504211827 76 234 4.3 7.8 0.00 0.00 0.00 34 1004.2
20260504211327 76 292 1.7 3.5 0.00 0.00 0.00 36 1004.2
20260504210828 76 266 1.7 4.3 0.00 0.00 0.00 37 1004.1
20260504210328 76 283 1.7 5.2 0.00 0.00 0.00 37 1004.2
20260504205828 75 225 3.5 10.4 0.00 0.00 0.00 37 1004.3
20260504205327 75 273 5.2 12.2 0.00 0.00 0.00 36 1004.3
20260504204828 75 239 4.3 8.7 0.00 0.00 0.00 36 1004.3
20260504204327 76 250 1.7 5.2 0.00 0.00 0.00 37 1004.3
20260504203827 77 302 4.3 7.8 0.00 0.00 0.00 37 1004.3
20260504203328 77 280 1.7 4.3 0.00 0.00 0.00 36 1004.3
20260504202827 77 293 1.7 3.5 0.00 0.00 0.00 38 1004.3
20260504202328 76 265 1.7 2.6 0.00 0.00 0.00 38 1004.5
20260504201827 77 283 2.6 5.2 0.00 0.00 0.00 36 1004.4
20260504201329 76 265 1.7 4.3 0.00 0.00 0.00 36 1004.6
20260504200827 76 259 3.5 6.1 0.00 0.00 0.00 37 1004.6
20260504200328 75 21 0.9 1.7 0.00 0.00 0.00 38 1004.6
20260504195827 74 263 2.6 5.2 0.00 0.00 0.00 39 1004.8
20260504195329 74 279 1.7 5.2 0.00 0.00 0.00 41 1005.0
20260504194828 74 253 1.7 5.2 0.00 0.00 0.00 39 1005.3
20260504194329 74 292 3.5 4.3 0.00 0.00 0.00 40 1005.1
20260504193829 74 285 5.2 10.4 0.00 0.00 0.00 39 1005.0
20260504193328 74 263 2.6 7.0 0.00 0.00 0.00 39 1005.3
20260504192415 74 263 1.7 3.5 0.00 0.00 0.00 41 1005.4
20260504191828 74 273 3.5 7.8 0.00 0.00 0.00 40 1005.1
20260504191327 73 237 2.6 5.2 0.00 0.00 0.00 40 1005.4
20260504190829 72 258 3.5 7.0 0.00 0.00 0.00 44 1005.4
20260504190327 72 258 2.6 3.5 0.00 0.00 0.00 44 1005.7
20260504185827 72 301 1.7 4.3 0.00 0.00 0.00 42 1005.9
20260504185328 72 266 0.9 2.6 0.00 0.00 0.00 43 1005.7
20260504184828 72 235 6.1 9.6 0.00 0.00 0.00 41 1005.6
20260504184327 72 260 2.6 6.1 0.00 0.00 0.00 43 1006.2
20260504183827 73 268 3.5 8.7 0.00 0.00 0.00 42 1005.8
20260504183328 73 260 3.5 6.1 0.00 0.00 0.00 42 1005.8
20260504182829 74 258 4.3 13.9 0.00 0.00 0.00 42 1005.7
20260504182331 73 263 3.5 6.1 0.00 0.00 0.00 43 1005.7
20260504181827 73 255 3.5 7.0 0.00 0.00 0.00 44 1005.8
20260504181328 72 244 3.5 6.1 0.00 0.00 0.00 42 1005.7
20260504180827 72 247 2.6 4.3 0.00 0.00 0.00 43 1006.3
20260504180328 72 259 5.2 8.7 0.00 0.00 0.00 43 1005.7
20260504175827 72 271 3.5 6.1 0.00 0.00 0.00 43 1005.9
20260504175327 72 259 3.5 7.0 0.00 0.00 0.00 43 1005.9
20260504174828 72 256 1.7 4.3 0.00 0.00 0.00 44 1005.9
20260504174330 72 275 4.3 7.8 0.00 0.00 0.00 43 1006.0
20260504173827 72 249 2.6 7.0 0.00 0.00 0.00 44 1005.8
20260504173327 71 243 1.7 5.2 0.00 0.00 0.00 44 1006.1
20260504172827 71 288 2.6 5.2 0.00 0.00 0.00 46 1005.9
20260504172330 71 264 5.2 11.3 0.00 0.00 0.00 43 1005.8
20260504171827 70 263 3.5 6.1 0.00 0.00 0.00 45 1006.0
20260504171329 70 248 2.6 7.0 0.00 0.00 0.00 44 1006.4
20260504170827 71 257 4.3 7.8 0.00 0.00 0.00 43 1006.1
20260504170328 71 293 2.6 7.0 0.00 0.00 0.00 43 1005.8
20260504160328 69 274 2.6 5.2 0.00 0.00 0.00 47 1006.4
20260504150828 63 241 4.3 7.8 0.00 0.00 0.00 49 1006.8
20260504150328 63 241 1.7 4.3 0.00 0.00 0.00 51 1007.4
20260504141328 60 262 1.7 4.3 0.00 0.00 0.00 53 1006.9
20260504140828 60 217 1.7 4.3 0.00 0.00 0.00 52 1007.4
20260504140327 60 262 5.2 9.6 0.00 0.00 0.00 49 1007.3
20260504110327 52 212 1.7 1.7 0.00 0.00 0.00 57 1007.8
20260504100328 51 256 1.7 1.7 0.00 0.00 0.00 55 1008.1
20260504081827 51 227 1.7 1.7 0.00 0.00 0.00 56 1008.7
20260504081330 51 352 0.9 0.9 0.00 0.00 0.00 55 1008.7
20260504080827 51 238 1.7 2.6 0.00 0.00 0.00 56 1008.8
20260504080327 51 306 0.0 1.7 0.00 0.00 0.00 56 1008.7
20260504070327 52 4 0.9 1.7 0.00 0.00 0.00 53 1008.8
20260504050327 52 141 0.0 0.9 0.00 0.00 0.00 58 1009.0
20260504045828 52 174 0.0 0.9 0.00 0.00 0.00 59 1009.0
20260504045327 51 128 0.0 0.9 0.00 0.00 0.00 58 1009.0
20260504044827 51 13 0.0 1.7 0.00 0.00 0.00 61 1009.0
20260504044329 51 210 0.0 1.7 0.00 0.00 0.00 60 1009.1
20260504043827 51 327 0.9 1.7 0.00 0.00 0.00 61 1009.1
20260504043327 51 11 0.9 0.9 0.00 0.00 0.00 59 1009.1
20260504042828 51 54 0.9 0.9 0.00 0.00 0.00 61 1009.1
20260504042327 51 289 0.9 0.9 0.00 0.00 0.00 61 1009.1
20260504041827 50 264 0.0 0.9 0.00 0.00 0.00 63 1009.2
20260504041327 50 210 0.9 1.7 0.00 0.00 0.00 64 1009.2
20260504040827 50 231 0.0 0.9 0.00 0.00 0.00 65 1009.2
20260504040327 50 228 0.0 0.9 0.00 0.00 0.00 67 1009.4
20260504035827 50 239 0.0 0.9 0.00 0.00 0.01 66 1009.4
20260504035327 50 261 0.0 0.9 0.00 0.00 0.01 66 1009.4
20260504034827 50 255 0.9 1.7 0.00 0.00 0.01 70 1009.5
20260504034327 50 243 0.9 0.9 0.00 0.00 0.01 67 1009.5
20260504033827 50 168 0.0 0.9 0.00 0.00 0.01 68 1009.6
20260504033328 50 207 0.9 0.9 0.00 0.00 0.01 67 1009.8
20260504032827 50 264 0.0 0.9 0.00 0.00 0.01 69 1009.7
20260504032327 50 329 0.0 0.9 0.00 0.00 0.01 68 1009.7
20260504031828 50 10 0.0 0.0 0.00 0.00 0.01 69 1009.7
20260504031327 50 250 0.0 0.9 0.00 0.00 0.01 69 1009.7
20260504030827 50 291 0.0 0.9 0.00 0.00 0.01 68 1009.8
20260504030327 50 237 0.0 0.9 0.01 0.00 0.01 68 1009.8
20260504025827 50 238 0.0 0.9 0.01 0.00 0.01 69 1009.9
20260504025327 51 185 0.0 0.9 0.01 0.00 0.01 68 1009.9
20260504024827 51 142 0.0 0.9 0.01 0.00 0.01 67 1010.0
20260504024327 51 240 0.9 1.7 0.01 0.00 0.01 66 1010.0
20260504023827 51 264 0.0 1.7 0.01 0.00 0.01 66 1010.1
20260504023327 51 248 1.7 5.2 0.01 0.00 0.01 67 1010.2
20260504022827 51 257 0.9 1.7 0.01 0.00 0.01 67 1010.3
20260504022327 51 248 1.7 2.6 0.01 0.00 0.01 67 1010.4
20260504021829 51 254 1.7 5.2 0.01 0.00 0.01 68 1010.5
20260504021327 51 258 3.5 7.8 0.01 0.00 0.01 70 1010.6
20260504020827 51 226 1.7 3.5 0.00 0.00 0.01 70 1010.8
20260504020328 52 287 1.7 4.3 0.00 0.00 0.00 69 1011.1
20260504015827 53 268 2.6 5.2 0.00 0.00 0.00 66 1011.2
20260504015328 53 353 1.7 2.6 0.00 0.00 0.00 60 1011.2
20260504014827 54 229 1.7 3.5 0.00 0.00 0.00 57 1010.8
20260504014327 54 265 4.3 7.8 0.00 0.00 0.00 56 1010.5
20260504013827 54 256 1.7 2.6 0.00 0.00 0.00 55 1010.5
20260504013328 54 280 1.7 3.5 0.00 0.00 0.00 54 1010.4
20260504012828 55 353 1.7 3.5 0.00 0.00 0.00 53 1010.2
20260504012328 55 272 1.7 3.5 0.00 0.00 0.00 52 1010.2
20260504011827 55 268 2.6 6.1 0.00 0.00 0.00 52 1010.1
20260504011327 55 251 2.6 3.5 0.00 0.00 0.00 51 1010.0
20260504010827 55 261 4.3 7.8 0.00 0.00 0.00 50 1009.9
20260504010327 55 279 1.7 4.3 0.00 0.00 0.00 50 1009.9
20260504005827 55 225 4.3 7.0 0.00 0.00 0.00 49 1009.7
20260504005328 54 263 1.7 5.2 0.00 0.00 0.00 50 1009.7
20260504004827 54 253 4.3 9.6 0.00 0.00 0.00 50 1009.7
20260504004327 53 244 0.0 1.7 0.00 0.00 0.00 54 1009.8
20260504003827 53 282 0.9 1.7 0.00 0.00 0.00 51 1009.5
20260504003327 52 283 1.7 4.3 0.00 0.00 0.00 55 1009.7
20260504002828 52 159 0.0 1.7 0.00 0.00 0.00 55 1009.7
20260504002328 52 20 0.9 1.7 0.00 0.00 0.00 57 1009.6
20260504001827 52 302 0.9 1.7 0.00 0.00 0.00 58 1009.6
20260504001327 53 176 0.9 0.9 0.00 0.00 0.00 55 1009.6
20260504000827 53 217 0.0 0.9 0.00 0.00 0.00 56 1009.7
20260504000327 53 265 0.9 0.9 0.00 0.00 0.00 54 1009.7
20260503235827 53 35 0.0 0.9 0.00 0.00 0.00 54 1009.6
20260503235327 53 221 2.6 4.3 0.00 0.00 0.00 52 1009.7
20260503234827 54 354 0.9 1.7 0.00 0.00 0.00 52 1009.8
20260503234327 54 263 1.7 4.3 0.00 0.00 0.00 51 1009.9
20260503233827 54 230 2.6 4.3 0.00 0.00 0.00 51 1009.9
20260503233327 54 218 1.7 3.5 0.00 0.00 0.00 50 1010.1
20260503232827 54 265 3.5 7.0 0.00 0.00 0.00 49 1010.0
20260503232327 54 266 3.5 7.0 0.00 0.00 0.00 47 1009.9
20260503231827 54 11 1.7 2.6 0.00 0.00 0.00 48 1009.9
20260503231328 54 40 1.7 3.5 0.00 0.00 0.00 48 1009.8
20260503230827 54 288 1.7 2.6 0.00 0.00 0.00 48 1009.9
20260503230327 54 247 0.9 2.6 0.00 0.00 0.00 47 1009.8
20260503225827 55 265 0.9 1.7 0.00 0.00 0.00 48 1009.7
20260503225327 55 287 1.7 3.5 0.00 0.00 0.00 46 1009.6
20260503224827 55 273 1.7 3.5 0.00 0.00 0.00 46 1009.6
20260503224327 55 277 0.9 2.6 0.00 0.00 0.00 47 1009.5
20260503223828 56 265 1.7 4.3 0.00 0.00 0.00 46 1009.5
20260503223327 56 193 0.9 1.7 0.00 0.00 0.00 45 1009.6
20260503222827 56 0 0.0 0.9 0.00 0.00 0.00 44 1009.5
20260503222327 56 255 1.7 5.2 0.00 0.00 0.00 47 1009.4
20260503221827 56 290 1.7 1.7 0.00 0.00 0.00 45 1009.4
20260503221327 55 210 3.5 7.0 0.00 0.00 0.00 46 1009.5
20260503220827 55 261 0.9 1.7 0.00 0.00 0.00 46 1009.7
20260503220327 55 260 0.9 2.6 0.00 0.00 0.00 47 1009.7
20260503215829 56 237 1.7 3.5 0.00 0.00 0.00 48 1009.7
20260503215327 56 327 0.9 1.7 0.00 0.00 0.00 47 1009.7
20260503214827 56 297 1.7 2.6 0.00 0.00 0.00 47 1009.6
20260503214328 56 240 3.5 5.2 0.00 0.00 0.00 46 1009.6